Wind_Speed
22 22 22 20 20 13 15 14 22 30 38 43 47 53 46 49 49 57 55 57 60 46 35 25 29 32 39 39 45 41 35 26 28 24 22 16 18 21 19 24 24 15 18 18 22 23 20 15 19 21 24 18 15 17
16 17 12 15 10 2 3 11 17 32 42 43 46 45 47 47 45 56 54 54 52 29 22 35 21 35 36 42 40 33 52 45 28 24 23 18 20 20 23 20 28 26 16 18 18 20 25 21 23 22 17 18 19 17
11 11 11 9 12 13 16 22 29 35 39 42 42 41 38 41 50 53 53 52 48 39 24 21 24 24 34 50 39 32 34 22 28 23 18 19 17 24 21 23 16 21 26 25 15 17 18 17 19 17 20 19 21 25
5 9 10 11 15 17 21 28 29 35 35 36 37 37 38 40 54 51 53 48 36 42 19 22 25 27 28 48 47 46 36 31 20 25 22 23 27 20 21 26 27 27 21 27 31 29 26 20 22 20 22 22 23 22
10 9 12 16 20 24 28 28 31 35 35 35 35 37 40 39 46 47 47 39 26 33 19 29 24 31 34 42 47 43 33 32 26 25 27 27 22 22 19 25 31 25 30 30 32 28 25 20 20 20 24 22 22 24
18 12 13 15 19 24 28 30 33 36 33 38 41 38 42 39 40 39 36 27 35 34 10 14 30 25 38 46 49 48 37 30 27 23 23 24 30 23 20 33 33 28 26 26 29 21 22 25 30 23 24 23 26 25
20 17 18 21 25 28 29 32 32 35 39 38 38 35 32 33 35 37 26 25 33 31 18 8 9 24 24 35 47 48 46 33 24 29 24 17 19 28 32 33 22 13 19 28 29 33 31 28 27 30 26 22 24 21
21 25 26 26 33 36 32 34 35 43 37 33 31 32 32 30 26 23 17 12 22 25 26 11 11 9 20 38 39 44 42 38 33 26 20 22 22 28 21 23 30 30 20 21 27 28 28 28 27 27 27 28 23 21
20 22 23 23 27 31 29 33 34 32 29 28 28 29 26 24 24 22 14 14 21 22 22 19 22 1 22 33 35 36 36 35 31 35 32 18 24 16 17 19 20 19 23 27 28 27 31 30 29 27 26 25 25 25
20 22 24 25 27 29 30 28 29 27 26 28 32 32 30 26 20 21 19 11 18 23 24 22 18 10 11 37 30 34 30 26 28 25 30 31 25 23 25 21 15 20 24 24 28 31 33 34 34 32 30 34 26 31
21 24 26 27 26 27 28 29 30 30 30 31 29 20 25 21 24 22 16 10 10 9 13 19 16 9 20 19 29 25 19 23 16 21 25 17 23 32 31 28 29 26 24 26 24 20 24 34 39 40 41 41 37 38
22 25 24 25 28 30 30 31 31 30 28 28 26 36 33 22 6 7 14 8 9 9 7 7 6 4 14 13 8 12 3 11 8 17 18 7 12 21 32 35 36 35 36 38 39 33 32 26 26 26 28 29 30 30
24 27 32 34 33 33 32 33 25 24 32 27 14 10 7 4 5 6 6 5 5 7 6 7 8 8 10 5 5 5 5 4 18 11 7 1 8 18 22 26 30 33 35 37 39 40 37 36 31 25 25 26 25 25
29 29 30 30 32 37 25 23 31 24 20 12 6 5 4 4 4 7 11 7 7 5 9 5 10 6 5 5 4 3 6 8 4 5 3 7 5 6 12 18 22 24 26 29 30 30 31 30 26 26 22 21 21 20
32 31 30 32 32 26 21 26 27 22 7 6 4 0 2 4 6 10 13 11 9 7 10 7 7 4 8 3 5 5 3 6 6 4 4 5 5 4 2 2 3 5 7 10 11 11 11 10 11 12 10 7 5 6
33 32 28 17 12 17 25 25 24 9 6 3 1 3 6 5 6 11 14 13 6 13 17 16 7 5 5 5 4 6 5 6 4 7 7 7 7 7 7 7 7 7 6 5 6 7 8 9 8 7 7 5 3 2
21 13 9 8 9 6 9 11 4 6 3 3 6 3 5 9 9 12 15 14 12 22 20 9 4 4 6 6 7 7 7 9 8 9 10 12 12 13 13 13 14 13 12 12 12 11 8 7 7 6 5 4 3 2
15 12 8 5 2 2 5 5 2 7 14 12 9 12 14 17 18 18 19 21 22 21 19 6 8 6 8 8 16 17 14 13 13 14 16 18 17 16 14 13 13 10 9 8 6 5 4 4 3 1 1 1 1 4
21 18 12 8 6 1 1 9 11 11 16 11 14 15 19 21 24 24 22 19 19 18 15 11 8 20 25 26 22 19 18 17 16 16 16 15 14 11 9 7 6 5 5 4 4 3 2 1 2 3 5 7 10 13
9 11 9 6 4 9 9 14 20 14 21 22 25 26 21 18 16 16 15 15 14 10 13 28 31 29 26 23 21 18 18 16 13 12 11 9 7 5 3 2 1 2 2 2 3 5 6 7 8 10 12 14 15 17
11 13 11 10 17 22 19 15 21 18 22 21 25 26 27 20 16 15 17 18 17 28 38 32 27 25 22 19 17 14 13 11 7 6 5 4 3 1 1 3 4 4 5 7 8 9 10 11 12 14 15 17 19 21
7 9 8 11 11 16 16 21 18 22 25 27 28 29 29 28 28 28 29 31 36 34 31 26 24 20 17 14 12 10 9 7 5 2 1 1 3 3 5 6 6 7 8 9 10 11 13 14 16 18 20 22 23 24
18 20 22 26 20 14 25 25 18 19 12 16 17 20 19 21 21 17 23 27 28 27 23 19 17 14 10 9 7 5 3 3 1 1 2 2 4 5 7 8 10 11 13 15 16 17 18 19 20 22 23 25 27 29
18 18 14 8 9 15 17 17 19 17 17 18 18 19 18 18 15 19 23 22 20 18 16 13 12 9 7 5 4 2 0 1 2 4 5 7 9 10 12 13 14 15 16 17 18 19 21 22 24 25 26 27 28 29
9 9 11 19 15 17 16 16 17 19 19 16 15 12 9 9 11 14 15 14 13 12 10 8 7 6 5 4 2 2 3 5 6 8 10 11 11 12 12 13 14 15 17 19 20 22 23 24 25 25 25 26 26 26
5 5 8 13 19 16 16 20 18 19 15 11 9 10 9 7 4 5 9 8 8 8 7 6 5 4 4 4 5 6 8 9 10 10 11 11 11 12 13 15 17 18 19 20 20 21 21 21 21 21 20 21 21 22
8 10 16 15 17 19 20 20 17 14 11 8 10 7 5 3 2 4 5 5 4 4 4 5 5 5 6 7 9 10 10 10 10 10 10 11 13 15 16 17 18 18 18 18 18 18 17 17 17 18 19 19 20 21
19 22 23 21 21 19 19 17 13 9 8 7 5 4 2 1 1 1 2 3 5 6 7 7 8 9 10 10 10 10 9 9 10 12 14 15 16 16 17 17 17 16 16 15 15 14 14 15 16 17 19 20 21 21
28 24 21 20 18 16 13 11 11 10 7 5 4 2 1 1 2 4 5 6 8 9 9 11 11 12 12 11 9 9 10 12 14 15 16 16 16 15 15 15 14 13 12 12 13 13 15 16 17 19 20 20 21 22
24 21 19 16 15 15 12 10 9 6 4 2 0 1 2 3 5 6 8 10 11 11 12 11 11 10 8 8 9 11 13 15 15 15 15 15 14 13 12 12 12 13 13 14 15 16 17 18 19 20 20 21 22 22
22 18 15 14 15 14 11 8 5 3 1 1 2 4 5 5 6 8 9 10 10 10 9 9 9 9 9 10 12 12 12 13 13 12 11 10 10 10 11 11 12 13 14 16 17 18 20 20 21 22 22 22 22 23
18 15 13 14 13 10 7 4 2 2 3 4 5 5 4 6 7 9 8 8 8 8 9 9 9 10 11 11 11 11 10 9 9 8 8 9 9 10 10 11 13 14 16 17 18 19 20 21 22 23 23 23 24 24
17 15 12 10 9 6 3 3 2 4 5 6 5 5 6 7 7 8 8 8 8 8 8 9 9 9 10 9 8 8 7 7 8 8 8 9 10 11 12 13 14 15 16 16 17 18 20 21 22 22 23 24 24 24
Wind_Direction
317 313 319 313 320 285 269 248 218 204 197 192 191 188 192 200 199 205 201 198 200 210 209 195 194 205 195 199 195 199 198 200 194 204 211 202 226 231 237 232 222 202 196 205 223 229 235 220 213 219 257 262 242 255
326 330 320 341 359 185 147 131 152 165 171 176 175 180 186 191 192 193 193 195 196 196 195 208 204 181 194 199 190 191 201 211 205 208 215 212 217 224 239 247 232 236 222 222 220 239 242 240 242 257 258 250 256 258
339 1 30 48 64 100 117 130 138 147 160 166 171 174 184 183 188 189 195 192 197 199 195 194 193 190 188 186 196 206 202 203 213 209 210 205 213 221 228 230 229 237 233 246 248 244 247 240 250 247 254 258 260 277
20 58 61 77 88 111 120 124 132 141 149 156 166 168 176 179 186 190 195 192 200 201 193 202 206 211 204 187 190 197 201 206 221 217 214 221 229 228 232 236 242 238 252 250 252 252 262 253 257 261 261 267 275 280
56 88 85 95 108 115 121 132 145 143 143 149 153 150 152 165 181 189 196 190 189 198 229 219 226 219 215 193 193 196 192 198 205 207 213 220 229 230 241 240 240 238 240 244 251 252 248 264 262 265 266 274 270 273
63 106 97 112 125 123 124 128 132 138 143 145 147 151 170 176 184 183 182 190 189 187 154 202 223 228 200 197 195 196 193 193 206 214 220 229 235 226 244 245 244 241 253 250 256 255 256 254 253 265 267 270 276 276
84 95 103 115 120 120 126 130 132 137 139 146 151 161 164 171 173 181 185 194 189 189 196 244 224 229 212 210 205 201 198 202 207 208 224 219 216 227 234 241 235 235 256 258 258 252 254 260 256 261 255 271 273 269
99 103 106 111 117 113 118 125 121 137 136 134 140 152 162 165 167 174 185 175 176 199 213 228 269 193 193 197 197 202 207 205 210 210 209 219 227 237 249 258 255 240 243 247 249 245 250 260 255 255 256 265 270 262
113 116 119 111 120 120 127 126 129 134 144 150 147 148 152 168 173 179 185 185 191 190 208 238 250 324 183 187 192 194 204 206 210 222 217 218 223 230 242 242 235 234 244 251 248 249 254 256 255 255 253 269 272 269
128 123 122 123 126 128 132 132 134 138 144 156 158 160 173 183 186 193 206 203 202 213 224 237 260 275 160 177 182 183 187 191 205 219 219 222 234 234 244 236 232 233 242 250 251 251 249 252 254 258 260 259 263 263
130 130 129 133 136 138 139 139 141 143 145 147 151 148 154 159 158 168 187 187 194 192 222 255 260 236 155 154 153 175 171 184 182 208 206 212 218 231 235 238 241 238 239 245 267 270 265 260 261 263 261 262 261 260
114 127 132 133 132 132 132 133 135 138 142 144 140 140 144 149 108 122 160 163 164 198 229 246 209 163 118 132 129 174 118 148 168 179 197 203 214 231 236 237 240 243 246 247 257 259 261 268 269 270 268 263 255 256
114 115 117 117 125 132 132 124 122 136 135 137 113 101 115 86 103 116 147 167 206 205 206 205 201 183 153 129 124 133 133 123 141 162 144 206 275 238 234 233 237 241 245 249 251 259 264 267 262 254 250 248 246 248
131 129 132 127 127 127 119 121 131 137 131 109 81 109 107 98 141 157 158 179 202 200 214 178 166 171 150 159 118 119 130 140 103 75 46 332 315 280 251 245 245 246 247 248 249 246 244 243 245 253 260 259 252 245
134 131 128 130 140 141 124 137 146 143 118 102 93 12 297 238 233 191 185 188 188 181 199 194 203 200 190 148 124 121 101 66 79 71 19 21 15 359 331 268 250 247 246 244 242 244 248 240 233 228 212 192 178 186
136 133 127 103 74 100 139 151 167 206 45 107 312 183 246 243 230 211 203 199 193 176 176 191 189 165 116 108 93 74 66 60 79 82 71 66 65 68 71 78 82 84 85 95 106 103 102 92 84 87 99 107 125 156
143 140 130 107 88 101 145 178 189 244 297 88 62 130 162 183 194 194 207 212 203 185 184 199 157 101 104 77 69 73 95 118 107 98 96 91 90 91 89 89 88 89 91 92 91 91 89 80 71 71 65 87 92 96
174 175 156 153 101 57 184 260 197 85 79 69 89 104 116 119 145 169 180 183 180 182 197 152 112 109 86 93 105 114 113 109 106 106 108 106 101 98 97 93 89 83 80 79 76 68 66 70 70 63 92 135 223 265
183 190 193 188 171 190 354 115 101 84 79 87 81 90 93 96 112 128 142 156 171 168 142 112 92 104 110 119 119 118 112 109 112 113 113 110 107 103 96 84 68 61 52 49 56 51 46 24 311 290 281 280 285 290
162 197 221 255 233 169 105 93 105 97 92 81 77 73 77 84 90 95 102 112 118 148 121 110 108 112 115 116 116 115 114 114 114 115 117 118 115 100 82 61 21 22 2 338 317 308 304 303 304 305 306 306 307 306
140 147 136 114 169 145 118 112 103 87 84 86 83 81 78 82 88 102 109 113 132 113 103 107 113 117 118 120 120 121 124 119 125 141 137 133 129 123 326 317 322 324 324 322 319 316 314 311 310 309 308 307 306 305
160 174 195 191 155 121 113 116 109 103 101 94 90 93 95 95 97 99 103 98 101 103 109 115 116 118 122 125 125 127 126 124 134 131 98 10 360 338 327 322 323 320 317 315 314 314 313 312 310 309 307 307 306 306
120 119 125 123 107 105 115 116 112 109 109 104 105 97 98 97 96 101 92 98 107 113 116 117 118 119 125 127 127 132 140 158 182 283 315 319 315 313 313 315 315 314 314 314 314 314 314 314 313 312 312 310 309 308
116 110 96 90 100 124 128 122 117 112 113 113 108 100 99 99 105 107 112 118 124 128 133 137 140 143 144 140 131 131 126 310 307 307 310 311 311 311 312 313 313 313 314 315 315 314 313 312 312 312 312 312 312 312
100 88 106 117 121 133 128 129 128 124 118 116 111 111 113 113 111 114 126 131 137 142 148 154 161 168 167 170 196 240 268 285 294 300 303 302 302 303 304 305 308 310 311 310 310 311 311 312 312 313 313 313 314 315
93 104 129 140 140 138 133 131 133 128 123 110 102 107 105 90 83 123 146 150 156 162 169 180 191 204 223 244 264 281 292 298 301 301 301 300 302 305 308 309 310 310 310 310 311 312 312 313 314 316 318 322 324 325
107 118 138 149 147 141 134 126 121 112 97 92 99 90 77 76 90 154 175 173 180 193 210 225 241 257 272 285 294 299 302 303 302 301 305 309 311 313 313 314 315 315 315 316 317 318 320 323 326 328 331 333 335 335
133 129 130 128 128 125 121 119 107 89 91 94 88 75 74 61 6 166 202 231 237 247 252 263 275 286 295 299 301 302 303 304 308 312 316 317 316 315 316 317 319 321 323 325 327 330 333 335 337 338 339 340 341 341
129 129 125 127 127 125 116 107 102 104 102 99 98 94 65 301 296 274 264 263 269 273 280 287 293 297 299 302 303 307 309 311 314 314 315 317 320 322 324 327 329 333 338 341 343 343 342 342 342 342 341 341 341 341
131 131 133 131 128 117 114 114 117 115 119 113 106 230 250 267 266 271 270 271 274 278 281 285 289 289 289 295 300 304 307 310 313 315 318 321 325 329 333 338 341 343 343 343 343 343 342 340 339 337 337 338 339 339
131 133 134 132 127 123 120 119 119 124 140 205 249 271 277 277 278 277 276 275 275 279 283 283 283 286 291 297 302 306 309 311 314 317 320 324 329 334 336 338 339 340 340 339 338 336 334 333 331 331 330 330 331 332
132 132 133 130 125 122 123 127 147 218 251 265 283 275 284 291 281 284 273 270 273 274 278 280 284 292 299 303 306 310 313 316 318 322 327 330 333 335 336 337 336 335 334 333 333 333 332 331 330 328 327 326 325 325
134 132 132 127 125 127 134 188 236 265 279 282 260 277 290 295 284 282 275 267 272 274 283 291 297 302 306 309 312 315 318 323 326 329 332 332 332 333 333 332 332 333 335 337 337 337 337 336 335 334 333 330 328 325
Height
2778 2772 2765 2758 2749 2743 2739 2736 2737 2745 2758 2773 2787 2803 2819 2829 2844 2858 2873 2885 2898 2907 2912 2917 2923 2930 2939 2945 2954 2963 2972 2976 2984 2989 2992 2993 3000 3003 3004 3003 3005 3008 3010 3011 3016 3016 3015 3019 3021 3025 3024 3025 3026 3026
2775 2769 2763 2755 2746 2743 2741 2738 2736 2745 2760 2774 2790 2805 2818 2830 2843 2857 2871 2883 2896 2904 2906 2914 2920 2925 2934 2945 2954 2958 2961 2970 2976 2984 2986 2988 2993 2999 3000 2999 3001 3003 3004 3006 3008 3007 3011 3013 3015 3018 3020 3020 3020 3020
2774 2769 2764 2759 2754 2749 2748 2750 2753 2760 2771 2783 2796 2809 2819 2833 2845 2860 2871 2883 2894 2901 2908 2914 2920 2924 2929 2936 2945 2952 2959 2968 2974 2979 2983 2983 2986 2993 2996 2998 2999 2997 3000 3000 3004 3005 3007 3009 3010 3013 3013 3014 3014 3013
2774 2772 2769 2765 2762 2759 2759 2762 2766 2773 2782 2792 2802 2813 2824 2834 2848 2861 2872 2884 2894 2902 2908 2912 2918 2923 2927 2932 2938 2945 2954 2966 2967 2974 2977 2978 2981 2986 2990 2992 2993 2995 2996 2996 2996 3000 3002 3003 3004 3006 3007 3007 3007 3007
2778 2776 2775 2773 2771 2770 2771 2773 2777 2784 2793 2802 2809 2818 2829 2841 2854 2864 2874 2886 2894 2905 2906 2910 2912 2918 2924 2929 2935 2941 2950 2956 2963 2968 2969 2971 2976 2982 2982 2984 2983 2987 2988 2989 2988 2994 2997 2998 3000 3000 3000 3000 3000 3000
2784 2782 2781 2780 2779 2780 2781 2783 2789 2796 2802 2809 2818 2827 2838 2848 2857 2868 2879 2887 2892 2899 2904 2907 2910 2912 2918 2922 2931 2937 2945 2952 2959 2962 2965 2966 2970 2976 2974 2972 2978 2982 2983 2984 2986 2990 2990 2993 2993 2994 2994 2994 2994 2993
2791 2790 2788 2787 2787 2789 2791 2794 2798 2805 2812 2819 2828 2838 2847 2855 2864 2873 2881 2885 2890 2898 2903 2906 2907 2910 2914 2919 2925 2934 2941 2948 2954 2958 2960 2963 2968 2968 2966 2965 2972 2976 2978 2979 2981 2981 2983 2986 2986 2987 2987 2987 2987 2986
2799 2799 2799 2799 2800 2801 2804 2806 2811 2817 2821 2829 2838 2846 2853 2862 2872 2879 2883 2888 2894 2899 2903 2904 2903 2904 2907 2914 2922 2930 2938 2945 2948 2953 2957 2960 2964 2962 2958 2960 2964 2969 2971 2972 2974 2974 2976 2978 2979 2979 2979 2980 2980 2979
2805 2806 2808 2810 2811 2812 2815 2817 2823 2827 2833 2839 2846 2854 2862 2869 2875 2880 2884 2889 2894 2900 2900 2902 2900 2897 2904 2909 2919 2927 2935 2940 2945 2946 2950 2957 2956 2957 2958 2960 2962 2961 2964 2966 2966 2968 2969 2970 2971 2972 2972 2972 2972 2972
2811 2813 2816 2819 2821 2824 2828 2831 2834 2838 2843 2849 2856 2863 2868 2873 2880 2884 2888 2891 2896 2897 2899 2900 2900 2896 2903 2907 2915 2924 2927 2934 2936 2940 2946 2948 2950 2953 2950 2952 2954 2956 2958 2959 2960 2961 2961 2961 2962 2963 2963 2965 2964 2965
2818 2819 2821 2824 2827 2831 2835 2839 2843 2847 2852 2857 2863 2867 2872 2877 2881 2887 2889 2892 2894 2896 2897 2895 2894 2894 2903 2904 2909 2917 2922 2928 2930 2934 2939 2942 2945 2937 2942 2946 2949 2949 2950 2951 2951 2951 2951 2952 2953 2953 2953 2953 2954 2954
2826 2826 2829 2832 2835 2839 2843 2847 2851 2856 2860 2864 2867 2872 2875 2878 2882 2887 2889 2891 2893 2896 2895 2895 2897 2895 2899 2902 2905 2913 2910 2918 2922 2927 2932 2931 2932 2932 2935 2937 2938 2940 2942 2943 2942 2943 2943 2944 2944 2944 2943 2943 2944 2944
2837 2839 2840 2841 2844 2846 2849 2855 2858 2862 2866 2870 2872 2875 2877 2880 2882 2884 2885 2889 2889 2891 2894 2897 2899 2900 2902 2904 2906 2910 2913 2914 2916 2922 2924 2927 2926 2927 2928 2929 2930 2931 2933 2933 2935 2936 2936 2936 2936 2936 2935 2936 2935 2935
2844 2846 2848 2850 2853 2858 2861 2864 2866 2869 2871 2873 2874 2876 2878 2880 2882 2885 2889 2890 2892 2893 2895 2896 2898 2900 2902 2905 2907 2908 2912 2916 2918 2922 2926 2926 2924 2924 2923 2923 2924 2924 2924 2925 2926 2927 2927 2927 2926 2926 2926 2926 2926 2927
2850 2854 2857 2861 2864 2866 2868 2870 2872 2874 2874 2875 2877 2877 2878 2880 2882 2885 2888 2892 2893 2895 2898 2900 2901 2902 2904 2906 2908 2911 2913 2917 2921 2925 2925 2924 2923 2923 2922 2921 2920 2920 2920 2919 2920 2920 2920 2920 2920 2920 2921 2921 2923 2925
2860 2861 2864 2868 2870 2873 2876 2877 2877 2877 2877 2879 2879 2880 2880 2880 2880 2882 2885 2890 2894 2897 2900 2902 2901 2903 2904 2906 2908 2912 2917 2922 2925 2924 2924 2925 2924 2924 2923 2922 2921 2921 2920 2919 2920 2921 2921 2922 2923 2922 2922 2923 2926 2928
2869 2869 2869 2872 2875 2877 2879 2880 2881 2880 2881 2881 2881 2880 2880 2878 2879 2882 2886 2888 2893 2896 2898 2899 2899 2902 2905 2908 2914 2917 2922 2924 2925 2925 2925 2926 2926 2926 2926 2926 2926 2925 2925 2924 2924 2925 2926 2926 2926 2927 2926 2927 2928 2928
2872 2873 2875 2877 2878 2880 2881 2881 2881 2882 2882 2884 2884 2883 2882 2881 2881 2884 2887 2891 2895 2897 2900 2899 2901 2903 2907 2915 2920 2923 2925 2926 2927 2927 2928 2928 2929 2930 2930 2930 2930 2929 2929 2928 2928 2927 2927 2927 2927 2927 2927 2927 2928 2928
2875 2876 2877 2879 2881 2883 2883 2884 2883 2885 2887 2889 2888 2886 2885 2884 2886 2888 2891 2893 2896 2897 2898 2900 2903 2907 2912 2918 2921 2925 2927 2928 2930 2930 2931 2932 2933 2933 2933 2933 2932 2932 2931 2930 2930 2929 2929 2928 2928 2927 2927 2926 2926 2926
2878 2880 2882 2882 2883 2885 2886 2889 2888 2892 2894 2894 2891 2890 2890 2890 2891 2892 2894 2895 2896 2898 2899 2905 2911 2916 2920 2923 2926 2929 2930 2932 2934 2935 2935 2935 2935 2935 2935 2935 2934 2933 2932 2931 2931 2930 2929 2928 2927 2926 2925 2925 2923 2923
2880 2882 2884 2885 2886 2887 2890 2894 2895 2898 2898 2899 2899 2899 2897 2899 2899 2899 2899 2901 2902 2901 2907 2916 2920 2924 2926 2929 2931 2932 2933 2935 2936 2937 2937 2936 2935 2935 2935 2934 2934 2932 2931 2930 2930 2929 2928 2926 2925 2924 2922 2921 2919 2917
2883 2885 2887 2890 2892 2893 2896 2899 2901 2902 2905 2905 2906 2905 2906 2907 2907 2908 2909 2906 2908 2916 2920 2924 2926 2928 2930 2932 2933 2934 2935 2936 2937 2937 2937 2936 2935 2935 2934 2933 2932 2931 2930 2929 2928 2926 2925 2923 2922 2920 2917 2915 2913 2911
2887 2888 2890 2892 2895 2901 2906 2905 2906 2906 2909 2911 2913 2912 2914 2915 2915 2917 2916 2918 2920 2924 2927 2929 2931 2932 2934 2935 2936 2936 2937 2937 2937 2936 2936 2935 2934 2933 2932 2931 2930 2929 2928 2926 2924 2922 2920 2918 2916 2913 2911 2908 2906 2903
2894 2895 2895 2898 2901 2905 2908 2910 2910 2912 2914 2916 2917 2919 2920 2921 2924 2924 2925 2927 2929 2931 2932 2933 2934 2935 2935 2935 2935 2936 2936 2936 2935 2935 2934 2933 2932 2931 2930 2929 2927 2925 2923 2921 2919 2917 2915 2913 2910 2908 2905 2902 2898 2895
2899 2900 2903 2904 2906 2910 2912 2914 2915 2917 2918 2921 2922 2923 2925 2926 2927 2927 2929 2931 2932 2933 2934 2935 2936 2936 2936 2936 2937 2936 2936 2935 2935 2934 2933 2932 2930 2929 2927 2926 2924 2922 2920 2918 2915 2913 2910 2908 2905 2902 2899 2896 2892 2889
2900 2903 2905 2907 2910 2913 2914 2917 2919 2921 2922 2922 2925 2926 2927 2928 2929 2930 2931 2932 2933 2934 2934 2935 2935 2935 2936 2936 2936 2935 2935 2934 2932 2931 2930 2928 2927 2926 2924 2922 2920 2918 2915 2913 2910 2907 2905 2902 2899 2896 2894 2890 2887 2883
2902 2905 2907 2909 2911 2914 2916 2919 2921 2922 2923 2925 2927 2928 2928 2929 2930 2931 2931 2931 2932 2933 2933 2934 2934 2934 2934 2934 2933 2932 2931 2930 2929 2928 2926 2925 2923 2921 2919 2917 2914 2912 2909 2907 2904 2902 2899 2897 2894 2891 2888 2885 2882 2878
2904 2908 2910 2913 2914 2917 2918 2920 2922 2924 2926 2927 2929 2929 2930 2930 2931 2931 2931 2931 2932 2932 2932 2932 2932 2932 2931 2930 2930 2929 2928 2927 2925 2924 2922 2920 2918 2916 2914 2912 2909 2907 2904 2902 2900 2897 2895 2893 2890 2887 2884 2881 2878 2874
2906 2910 2914 2915 2918 2919 2921 2923 2924 2926 2928 2929 2930 2931 2931 2931 2931 2931 2931 2931 2931 2931 2930 2930 2930 2929 2928 2927 2926 2925 2924 2923 2922 2920 2918 2916 2914 2912 2910 2907 2905 2903 2901 2899 2897 2895 2892 2890 2887 2884 2881 2877 2874 2870
2911 2914 2916 2918 2920 2922 2925 2927 2929 2930 2931 2932 2932 2932 2932 2932 2931 2931 2930 2930 2929 2929 2929 2928 2927 2927 2926 2925 2924 2923 2921 2920 2918 2916 2914 2912 2910 2908 2906 2904 2902 2900 2898 2896 2894 2891 2889 2886 2883 2880 2877 2874 2871 2867
2913 2917 2919 2921 2923 2926 2928 2930 2931 2931 2932 2932 2932 2932 2932 2931 2930 2929 2928 2928 2927 2927 2926 2925 2925 2924 2923 2922 2921 2920 2918 2916 2914 2913 2911 2909 2908 2906 2904 2902 2900 2898 2896 2894 2891 2889 2886 2883 2880 2877 2874 2870 2867 2864
2918 2920 2923 2924 2926 2929 2930 2931 2932 2932 2932 2932 2931 2931 2930 2929 2929 2928 2927 2926 2925 2925 2924 2924 2923 2922 2921 2919 2918 2916 2915 2913 2912 2911 2909 2907 2906 2904 2902 2900 2898 2896 2894 2891 2889 2886 2883 2880 2876 2873 2870 2866 2863 2859
2921 2924 2926 2927 2929 2930 2931 2932 2932 2932 2931 2930 2929 2929 2928 2928 2926 2926 2925 2924 2924 2923 2923 2921 2920 2919 2918 2917 2915 2914 2913 2911 2910 2908 2907 2905 2904 2902 2900 2898 2896 2894 2891 2888 2886 2883 2880 2876 2873 2869 2866 2862 2858 2854